Time,TemperatureF,DewpointF,PressureIn,WindDirection,WindDirectionDegrees,WindSpeedMPH,WindSpeedGustMPH,Humidity,HourlyPrecipIn,Conditions,Clouds,dailyrainin,SoftwareType,DateUTC
2013-02-08 00:02:00,52.0,46.7,29.52,SSW,202,4.3,5.6,82,0.00,,---,0.00,VWS V13.01,2013-02-07 22:02:00,
2013-02-08 00:07:00,52.0,46.7,29.52,SSW,202,0.0,3.4,82,0.00,,---,0.00,VWS V13.01,2013-02-07 22:07:00,
2013-02-08 00:12:00,52.0,46.4,29.51,South,180,0.0,2.9,81,0.00,,---,0.00,VWS V13.01,2013-02-07 22:12:00,
2013-02-08 00:17:00,52.0,46.4,29.52,South,180,0.0,2.2,81,0.00,,---,0.00,VWS V13.01,2013-02-07 22:17:00,
2013-02-08 00:22:00,52.0,46.4,29.52,South,180,0.0,3.1,81,0.00,,---,0.00,VWS V13.01,2013-02-07 22:22:00,
2013-02-08 00:27:00,52.0,46.4,29.51,SSE,157,0.0,4.5,81,0.00,,---,0.00,VWS V13.01,2013-02-07 22:27:00,
2013-02-08 00:32:00,52.0,46.4,29.52,SSE,157,0.7,1.3,81,0.00,,---,0.00,VWS V13.01,2013-02-07 22:32:00,
2013-02-08 00:37:00,52.0,46.0,29.51,SSW,202,5.8,7.4,80,0.00,,---,0.00,VWS V13.01,2013-02-07 22:37:00,
2013-02-08 00:42:00,52.0,46.0,29.52,SW,225,0.9,0.9,80,0.00,,---,0.00,VWS V13.01,2013-02-07 22:42:00,
2013-02-08 00:47:00,52.0,46.0,29.52,SSW,202,3.4,3.4,80,0.00,,---,0.00,VWS V13.01,2013-02-07 22:47:00,
2013-02-08 00:52:00,52.0,45.7,29.52,SSW,202,0.0,3.4,79,0.00,,---,0.00,VWS V13.01,2013-02-07 22:52:00,
2013-02-08 00:57:00,52.0,45.7,29.52,South,180,0.0,3.1,79,0.00,,---,0.00,VWS V13.01,2013-02-07 22:57:00,
2013-02-08 01:02:00,52.0,45.7,29.52,SW,225,0.0,5.4,79,0.00,,---,0.00,VWS V13.01,2013-02-07 23:02:00,
2013-02-08 01:07:00,52.0,45.7,29.52,SSW,202,0.0,2.2,79,0.00,,---,0.00,VWS V13.01,2013-02-07 23:07:00,
2013-02-08 01:12:00,51.8,45.5,29.51,SSE,157,0.0,2.2,79,0.00,,---,0.00,VWS V13.01,2013-02-07 23:12:00,
2013-02-08 01:17:00,51.8,45.5,29.52,SSE,157,0.0,2.9,79,0.00,,---,0.00,VWS V13.01,2013-02-07 23:17:00,
2013-02-08 01:22:00,51.8,45.5,29.52,SSE,157,0.0,2.5,79,0.00,,---,0.00,VWS V13.01,2013-02-07 23:22:00,
2013-02-08 01:27:00,51.8,45.5,29.52,SSW,202,0.9,3.4,79,0.00,,---,0.00,VWS V13.01,2013-02-07 23:27:00,
2013-02-08 01:32:00,51.8,45.5,29.52,SSE,157,1.8,4.3,79,0.00,,---,0.00,VWS V13.01,2013-02-07 23:32:00,
2013-02-08 01:37:00,51.6,45.3,29.51,SSW,202,1.1,3.6,79,0.00,,---,0.00,VWS V13.01,2013-02-07 23:37:00,
2013-02-08 01:42:00,51.6,45.3,29.52,SSE,157,3.4,5.4,79,0.00,,---,0.00,VWS V13.01,2013-02-07 23:42:00,
2013-02-08 01:47:00,51.6,45.3,29.52,SSW,202,0.0,2.0,79,0.00,,---,0.00,VWS V13.01,2013-02-07 23:47:00,
2013-02-08 01:52:00,51.6,45.3,29.52,South,180,2.9,5.6,79,0.00,,---,0.00,VWS V13.01,2013-02-07 23:52:00,
2013-02-08 01:57:00,51.6,45.3,29.51,SW,225,4.5,7.6,79,0.00,,---,0.00,VWS V13.01,2013-02-07 23:57:00,
2013-02-08 02:02:00,51.8,45.5,29.51,SSE,157,1.6,7.4,79,0.00,,---,0.00,VWS V13.01,2013-02-08 00:02:00,
2013-02-08 02:07:00,52.0,45.4,29.51,South,180,6.0,8.5,78,0.00,,---,0.00,VWS V13.01,2013-02-08 00:07:00,
2013-02-08 02:12:00,52.0,45.4,29.52,ESE,112,0.0,9.2,78,0.00,,---,0.00,VWS V13.01,2013-02-08 00:12:00,
2013-02-08 02:18:00,52.0,45.4,29.52,SW,225,1.3,3.8,78,0.00,,---,0.00,VWS V13.01,2013-02-08 00:18:00,
2013-02-08 02:23:00,52.0,45.4,29.52,South,180,6.5,9.2,78,0.00,,---,0.00,VWS V13.01,2013-02-08 00:23:00,
2013-02-08 02:28:00,52.0,45.4,29.51,SSW,202,6.3,7.4,78,0.00,,---,0.00,VWS V13.01,2013-02-08 00:28:00,
2013-02-08 02:33:00,52.0,45.4,29.51,SE,135,0.0,4.5,78,0.00,,---,0.00,VWS V13.01,2013-02-08 00:33:00,
2013-02-08 02:38:00,52.0,45.4,29.52,SSW,202,5.8,5.8,78,0.00,,---,0.00,VWS V13.01,2013-02-08 00:38:00,
2013-02-08 02:43:00,51.8,44.8,29.52,SE,135,1.8,5.8,77,0.00,,---,0.00,VWS V13.01,2013-02-08 00:43:00,
2013-02-08 02:48:00,51.6,44.6,29.52,South,180,4.7,13.0,77,0.00,,---,0.00,VWS V13.01,2013-02-08 00:48:00,
2013-02-08 02:53:00,51.6,44.3,29.52,SSE,157,1.8,6.5,76,0.00,,---,0.00,VWS V13.01,2013-02-08 00:53:00,
2013-02-08 02:58:00,51.4,43.8,29.52,SSE,157,2.2,2.2,75,0.00,,---,0.00,VWS V13.01,2013-02-08 00:58:00,
2013-02-08 03:03:00,51.4,43.8,29.52,SW,225,0.0,4.9,75,0.00,,---,0.00,VWS V13.01,2013-02-08 01:03:00,
2013-02-08 03:08:00,51.4,43.4,29.52,SE,135,3.4,3.4,74,0.00,,---,0.00,VWS V13.01,2013-02-08 01:08:00,
2013-02-08 03:13:00,51.3,43.3,29.52,South,180,5.1,8.3,74,0.00,,---,0.00,VWS V13.01,2013-02-08 01:13:00,
2013-02-08 03:18:00,51.1,42.8,29.52,SW,225,9.6,9.6,73,0.00,,---,0.00,VWS V13.01,2013-02-08 01:18:00,
2013-02-08 03:23:00,51.1,42.4,29.52,South,180,4.5,8.7,72,0.00,,---,0.00,VWS V13.01,2013-02-08 01:23:00,
2013-02-08 03:28:00,51.1,42.4,29.52,SSW,202,0.0,4.0,72,0.00,,---,0.00,VWS V13.01,2013-02-08 01:28:00,
2013-02-08 03:33:00,50.9,41.8,29.52,SSW,202,2.2,2.2,71,0.00,,---,0.00,VWS V13.01,2013-02-08 01:33:00,
2013-02-08 03:38:00,50.9,41.8,29.52,SSW,202,0.0,2.0,71,0.00,,---,0.00,VWS V13.01,2013-02-08 01:38:00,
2013-02-08 03:43:00,50.7,41.7,29.52,SSW,202,0.0,1.6,71,0.00,,---,0.00,VWS V13.01,2013-02-08 01:43:00,
2013-02-08 03:48:00,50.7,41.7,29.52,SW,225,1.6,1.6,71,0.00,,---,0.00,VWS V13.01,2013-02-08 01:48:00,
2013-02-08 03:53:00,50.7,41.3,29.52,South,180,2.5,6.0,70,0.00,,---,0.00,VWS V13.01,2013-02-08 01:53:00,
2013-02-08 03:58:00,50.5,41.1,29.52,WSW,247,0.0,4.5,70,0.00,,---,0.00,VWS V13.01,2013-02-08 01:58:00,
2013-02-08 04:03:00,50.5,41.1,29.52,WSW,247,0.0,1.3,70,0.00,,---,0.00,VWS V13.01,2013-02-08 02:03:00,
2013-02-08 04:08:00,50.4,41.0,29.52,West,270,0.0,1.3,70,0.00,,---,0.00,VWS V13.01,2013-02-08 02:08:00,
2013-02-08 04:13:00,50.4,41.0,29.51,South,180,0.0,2.9,70,0.00,,---,0.00,VWS V13.01,2013-02-08 02:13:00,
2013-02-08 04:18:00,50.2,40.8,29.51,SSE,157,1.8,4.0,70,0.00,,---,0.00,VWS V13.01,2013-02-08 02:18:00,
2013-02-08 04:23:00,50.2,40.8,29.51,South,180,0.0,5.4,70,0.00,,---,0.00,VWS V13.01,2013-02-08 02:23:00,
2013-02-08 04:28:00,50.2,40.4,29.51,SSW,202,1.6,5.8,69,0.00,,---,0.00,VWS V13.01,2013-02-08 02:28:00,
2013-02-08 04:33:00,50.2,40.4,29.51,SW,225,5.1,10.3,69,0.00,,---,0.00,VWS V13.01,2013-02-08 02:33:00,
2013-02-08 04:38:00,50.2,40.4,29.52,South,180,5.1,5.1,69,0.00,,---,0.00,VWS V13.01,2013-02-08 02:38:00,
2013-02-08 04:43:00,50.2,40.4,29.52,West,270,0.0,7.6,69,0.00,,---,0.00,VWS V13.01,2013-02-08 02:43:00,
2013-02-08 04:48:00,50.2,40.4,29.52,SSE,157,0.0,10.3,69,0.00,,---,0.00,VWS V13.01,2013-02-08 02:48:00,
2013-02-08 04:53:00,50.2,40.4,29.52,WSW,247,10.5,10.5,69,0.00,,---,0.00,VWS V13.01,2013-02-08 02:53:00,
2013-02-08 04:58:00,50.2,40.4,29.53,SW,225,4.0,9.2,69,0.00,,---,0.00,VWS V13.01,2013-02-08 02:58:00,
2013-02-08 05:03:00,50.2,40.4,29.53,SW,225,4.9,8.1,69,0.00,,---,0.00,VWS V13.01,2013-02-08 03:03:00,
2013-02-08 05:08:00,50.2,40.4,29.53,NW,315,0.0,4.0,69,0.00,,---,0.00,VWS V13.01,2013-02-08 03:08:00,
2013-02-08 05:13:00,49.8,40.0,29.53,South,180,1.6,4.3,69,0.00,,---,0.00,VWS V13.01,2013-02-08 03:13:00,
2013-02-08 05:18:00,49.8,40.0,29.53,WSW,247,0.0,2.2,69,0.00,,---,0.00,VWS V13.01,2013-02-08 03:18:00,
2013-02-08 05:23:00,49.8,40.4,29.54,SSW,202,6.3,6.3,70,0.00,,---,0.00,VWS V13.01,2013-02-08 03:23:00,
2013-02-08 05:28:00,49.8,40.4,29.54,WSW,247,0.0,6.3,70,0.00,,---,0.00,VWS V13.01,2013-02-08 03:28:00,
2013-02-08 05:33:00,49.6,40.2,29.54,NW,315,0.0,6.3,70,0.00,,---,0.00,VWS V13.01,2013-02-08 03:33:00,
2013-02-08 05:38:00,49.5,40.1,29.54,NNE,22,0.0,6.3,70,0.00,,---,0.00,VWS V13.01,2013-02-08 03:38:00,
2013-02-08 05:43:00,49.3,39.9,29.54,ENE,67,0.7,0.7,70,0.00,,---,0.00,VWS V13.01,2013-02-08 03:43:00,
2013-02-08 05:48:00,49.3,40.3,29.54,NE,45,0.0,0.9,71,0.00,,---,0.00,VWS V13.01,2013-02-08 03:48:00,
2013-02-08 05:53:00,49.1,40.1,29.55,SE,135,0.0,0.9,71,0.00,,---,0.00,VWS V13.01,2013-02-08 03:53:00,
2013-02-08 05:58:00,48.9,39.9,29.55,SE,135,0.0,0.9,71,0.00,,---,0.00,VWS V13.01,2013-02-08 03:58:00,
2013-02-08 06:03:00,48.7,40.1,29.55,SSE,157,0.0,0.9,72,0.00,,---,0.00,VWS V13.01,2013-02-08 04:03:00,
2013-02-08 06:08:00,48.7,40.1,29.55,SE,135,0.0,0.9,72,0.00,,---,0.00,VWS V13.01,2013-02-08 04:08:00,
2013-02-08 06:14:00,48.6,40.0,29.55,NNW,337,0.0,0.9,72,0.00,,---,0.00,VWS V13.01,2013-02-08 04:14:00,
2013-02-08 06:19:00,48.4,40.2,29.55,ENE,67,0.0,0.9,73,0.00,,---,0.00,VWS V13.01,2013-02-08 04:19:00,
2013-02-08 06:24:00,48.2,40.0,29.55,ENE,67,0.0,0.9,73,0.00,,---,0.00,VWS V13.01,2013-02-08 04:24:00,
2013-02-08 06:29:00,48.0,39.8,29.54,SE,135,0.0,0.9,73,0.00,,---,0.00,VWS V13.01,2013-02-08 04:29:00,
2013-02-08 06:34:00,48.0,39.8,29.54,ESE,112,0.0,0.9,73,0.00,,---,0.00,VWS V13.01,2013-02-08 04:34:00,
2013-02-08 06:39:00,47.8,39.6,29.55,South,180,0.0,0.9,73,0.00,,---,0.00,VWS V13.01,2013-02-08 04:39:00,
2013-02-08 06:44:00,47.8,39.9,29.54,SE,135,0.0,1.8,74,0.00,,---,0.00,VWS V13.01,2013-02-08 04:44:00,
2013-02-08 06:49:00,47.8,39.9,29.54,NNW,337,0.0,1.8,74,0.00,,---,0.00,VWS V13.01,2013-02-08 04:49:00,
2013-02-08 06:54:00,47.7,40.2,29.54,NNW,337,0.0,1.8,75,0.00,,---,0.00,VWS V13.01,2013-02-08 04:54:00,
2013-02-08 06:59:00,47.7,40.2,29.54,NNE,22,0.0,1.8,75,0.00,,---,0.00,VWS V13.01,2013-02-08 04:59:00,
2013-02-08 07:00:00,47.5,40.0,29.54,NNE,22,0.0,1.8,75,0.00,,---,0.00,VWS V13.01,2013-02-08 05:00:00,
2013-02-08 07:01:00,47.5,40.0,29.56,NNE,22,0.0,1.8,75,0.00,,---,0.00,VWS V13.01,2013-02-08 05:01:00,
2013-02-08 07:06:00,47.5,40.0,29.55,NNE,22,0.0,1.3,75,0.00,,---,0.00,VWS V13.01,2013-02-08 05:06:00,
2013-02-08 07:11:00,47.5,40.0,29.55,NNW,337,0.0,1.3,75,0.00,,---,0.00,VWS V13.01,2013-02-08 05:11:00,
2013-02-08 07:17:00,47.3,39.8,29.55,South,180,0.0,1.3,75,0.00,,---,0.00,VWS V13.01,2013-02-08 05:17:00,
2013-02-08 07:22:00,47.1,39.9,29.55,NW,315,0.0,1.3,76,0.00,,---,0.00,VWS V13.01,2013-02-08 05:22:00,
2013-02-08 07:27:00,47.1,39.9,29.56,ENE,67,0.0,1.3,76,0.00,,---,0.00,VWS V13.01,2013-02-08 05:27:00,
2013-02-08 07:32:00,47.1,39.9,29.56,NE,45,0.0,1.3,76,0.00,,---,0.00,VWS V13.01,2013-02-08 05:32:00,
2013-02-08 07:37:00,47.1,40.3,29.56,ENE,67,0.0,1.3,77,0.00,,---,0.00,VWS V13.01,2013-02-08 05:37:00,
2013-02-08 07:42:00,47.1,39.9,29.57,NNE,22,0.0,1.8,76,0.00,,---,0.00,VWS V13.01,2013-02-08 05:42:00,
2013-02-08 07:47:00,47.1,40.3,29.57,ENE,67,0.0,1.8,77,0.00,,---,0.00,VWS V13.01,2013-02-08 05:47:00,
2013-02-08 07:52:00,47.1,40.3,29.57,ENE,67,0.0,1.8,77,0.00,,---,0.00,VWS V13.01,2013-02-08 05:52:00,
2013-02-08 07:57:00,47.1,40.3,29.56,ENE,67,0.0,1.8,77,0.00,,---,0.00,VWS V13.01,2013-02-08 05:57:00,
2013-02-08 08:02:00,47.1,40.3,29.57,South,180,0.0,1.3,77,0.00,,---,0.00,VWS V13.01,2013-02-08 06:02:00,
2013-02-08 08:07:00,47.1,40.3,29.57,NNW,337,0.0,1.3,77,0.00,,---,0.00,VWS V13.01,2013-02-08 06:07:00,
2013-02-08 08:12:00,47.1,40.6,29.56,ENE,67,0.0,1.3,78,0.00,,---,0.00,VWS V13.01,2013-02-08 06:12:00,
2013-02-08 08:17:00,47.5,41.0,29.57,ENE,67,0.0,1.3,78,0.00,,---,0.00,VWS V13.01,2013-02-08 06:17:00,
2013-02-08 08:22:00,47.7,41.2,29.57,NE,45,0.0,1.3,78,0.00,,---,0.00,VWS V13.01,2013-02-08 06:22:00,
2013-02-08 08:27:00,47.8,41.3,29.57,NW,315,0.0,1.3,78,0.00,,---,0.00,VWS V13.01,2013-02-08 06:27:00,
2013-02-08 08:32:00,48.0,41.5,29.57,NW,315,0.0,1.3,78,0.00,,---,0.00,VWS V13.01,2013-02-08 06:32:00,
2013-02-08 08:37:00,48.0,41.5,29.57,North,0,0.0,1.3,78,0.00,,---,0.00,VWS V13.01,2013-02-08 06:37:00,
2013-02-08 08:42:00,48.4,41.9,29.57,NNE,22,0.0,1.3,78,0.00,,---,0.00,VWS V13.01,2013-02-08 06:42:00,
2013-02-08 08:47:00,48.6,42.1,29.57,ENE,67,0.0,1.3,78,0.00,,---,0.00,VWS V13.01,2013-02-08 06:47:00,
2013-02-08 08:52:00,48.7,42.5,29.57,ENE,67,0.0,1.3,79,0.00,,---,0.00,VWS V13.01,2013-02-08 06:52:00,
2013-02-08 08:57:00,48.9,42.7,29.57,NNW,337,0.0,1.3,79,0.00,,---,0.00,VWS V13.01,2013-02-08 06:57:00,
2013-02-08 09:02:00,48.9,42.7,29.57,NNW,337,0.0,1.3,79,0.00,,---,0.00,VWS V13.01,2013-02-08 07:02:00,
2013-02-08 09:07:00,49.1,42.9,29.57,NW,315,0.0,1.1,79,0.00,,---,0.00,VWS V13.01,2013-02-08 07:07:00,
2013-02-08 09:12:00,49.1,42.5,29.57,North,0,0.0,1.1,78,0.00,,---,0.00,VWS V13.01,2013-02-08 07:12:00,
2013-02-08 09:17:00,49.3,42.7,29.57,NNW,337,0.0,1.1,78,0.00,,---,0.00,VWS V13.01,2013-02-08 07:17:00,
2013-02-08 09:22:00,49.3,42.7,29.58,ENE,67,0.0,1.1,78,0.00,,---,0.00,VWS V13.01,2013-02-08 07:22:00,
2013-02-08 09:27:00,49.5,42.9,29.57,NE,45,0.0,1.1,78,0.00,,---,0.00,VWS V13.01,2013-02-08 07:27:00,
2013-02-08 09:32:00,49.6,43.0,29.57,North,0,0.0,2.2,78,0.00,,---,0.00,VWS V13.01,2013-02-08 07:32:00,
2013-02-08 09:37:00,49.8,43.2,29.58,North,0,2.5,2.5,78,0.00,,---,0.00,VWS V13.01,2013-02-08 07:37:00,
2013-02-08 09:42:00,50.2,43.6,29.57,North,0,0.0,2.0,78,0.00,,---,0.00,VWS V13.01,2013-02-08 07:42:00,
2013-02-08 09:47:00,50.2,43.3,29.57,North,0,0.0,2.0,77,0.00,,---,0.00,VWS V13.01,2013-02-08 07:47:00,
2013-02-08 09:52:00,50.4,43.5,29.57,NW,315,0.0,2.0,77,0.00,,---,0.00,VWS V13.01,2013-02-08 07:52:00,
2013-02-08 09:57:00,50.5,43.2,29.57,NNE,22,0.0,2.0,76,0.00,,---,0.00,VWS V13.01,2013-02-08 07:57:00,
2013-02-08 10:02:00,50.7,43.4,29.57,ESE,112,0.0,2.0,76,0.00,,---,0.00,VWS V13.01,2013-02-08 08:02:00,
2013-02-08 10:07:00,50.9,43.6,29.58,ESE,112,0.0,2.0,76,0.00,,---,0.00,VWS V13.01,2013-02-08 08:07:00,
2013-02-08 10:12:00,51.1,43.5,29.58,South,180,0.0,2.0,75,0.00,,---,0.00,VWS V13.01,2013-02-08 08:12:00,
2013-02-08 10:17:00,51.4,43.8,29.58,South,180,0.0,2.0,75,0.00,,---,0.00,VWS V13.01,2013-02-08 08:17:00,
2013-02-08 10:22:00,51.6,44.0,29.58,SW,225,0.0,2.0,75,0.00,,---,0.00,VWS V13.01,2013-02-08 08:22:00,
2013-02-08 10:27:00,51.6,44.0,29.58,SW,225,0.0,2.0,75,0.00,,---,0.00,VWS V13.01,2013-02-08 08:27:00,
2013-02-08 10:32:00,52.0,44.3,29.59,South,180,0.0,2.9,75,0.00,,---,0.00,VWS V13.01,2013-02-08 08:32:00,
2013-02-08 10:37:00,52.3,44.6,29.58,SSE,157,1.6,4.3,75,0.00,,---,0.00,VWS V13.01,2013-02-08 08:37:00,
2013-02-08 10:42:00,52.7,44.7,29.59,South,180,5.1,8.3,74,0.00,,---,0.00,VWS V13.01,2013-02-08 08:42:00,
2013-02-08 10:47:00,53.1,45.0,29.59,South,180,1.8,4.0,74,0.00,,---,0.00,VWS V13.01,2013-02-08 08:47:00,
2013-02-08 10:53:00,53.4,45.0,29.59,South,180,3.8,8.5,73,0.00,,---,0.00,VWS V13.01,2013-02-08 08:53:00,
2013-02-08 10:58:00,54.0,44.8,29.59,SSW,202,4.0,6.7,71,0.00,,---,0.00,VWS V13.01,2013-02-08 08:58:00,
2013-02-08 11:03:00,54.3,44.7,29.59,SW,225,5.8,9.8,70,0.00,,---,0.00,VWS V13.01,2013-02-08 09:03:00,
2013-02-08 11:08:00,54.7,44.7,29.59,SSW,202,8.5,11.6,69,0.00,,---,0.00,VWS V13.01,2013-02-08 09:08:00,
2013-02-08 11:13:00,55.0,44.7,29.59,SW,225,4.7,11.0,68,0.00,,---,0.00,VWS V13.01,2013-02-08 09:13:00,
2013-02-08 11:18:00,55.0,44.3,29.59,South,180,8.1,10.5,67,0.00,,---,0.00,VWS V13.01,2013-02-08 09:18:00,
2013-02-08 11:23:00,55.0,43.9,29.58,SSW,202,4.7,11.0,66,0.00,,---,0.00,VWS V13.01,2013-02-08 09:23:00,
2013-02-08 11:28:00,55.2,43.7,29.59,SSW,202,8.5,8.5,65,0.00,,---,0.00,VWS V13.01,2013-02-08 09:28:00,
2013-02-08 11:33:00,55.6,44.4,29.58,ESE,112,2.2,11.0,66,0.00,,---,0.00,VWS V13.01,2013-02-08 09:33:00,
2013-02-08 11:40:00,55.9,44.3,29.59,SW,225,4.5,5.4,65,0.00,,---,0.00,VWS V13.01,2013-02-08 09:40:00,
2013-02-08 11:45:00,56.1,44.1,29.58,SSW,202,2.0,8.7,64,0.00,,---,0.00,VWS V13.01,2013-02-08 09:45:00,
2013-02-08 11:50:00,56.5,44.5,29.58,SSE,157,2.9,4.9,64,0.00,,---,0.00,VWS V13.01,2013-02-08 09:50:00,
2013-02-08 11:55:00,56.5,44.1,29.58,SSE,157,8.3,8.5,63,0.00,,---,0.00,VWS V13.01,2013-02-08 09:55:00,
2013-02-08 12:00:00,56.8,43.9,29.58,SE,135,3.4,4.9,62,0.00,,---,0.00,VWS V13.01,2013-02-08 10:00:00,
2013-02-08 12:05:00,56.8,43.9,29.58,SSE,157,1.1,7.6,62,0.00,,---,0.00,VWS V13.01,2013-02-08 10:05:00,
2013-02-08 12:10:00,56.8,43.9,29.58,SSW,202,11.4,13.6,62,0.00,,---,0.00,VWS V13.01,2013-02-08 10:10:00,
2013-02-08 12:15:00,56.8,43.5,29.58,SE,135,0.0,4.5,61,0.00,,---,0.00,VWS V13.01,2013-02-08 10:15:00,
2013-02-08 12:20:00,56.8,43.5,29.58,SW,225,6.0,7.8,61,0.00,,---,0.00,VWS V13.01,2013-02-08 10:20:00,
2013-02-08 12:25:00,56.8,43.5,29.58,SE,135,2.0,8.1,61,0.00,,---,0.00,VWS V13.01,2013-02-08 10:25:00,
2013-02-08 12:30:00,56.8,43.5,29.57,South,180,0.0,5.8,61,0.00,,---,0.00,VWS V13.01,2013-02-08 10:30:00,
2013-02-08 12:35:00,56.8,43.5,29.57,SSW,202,6.9,11.0,61,0.00,,---,0.00,VWS V13.01,2013-02-08 10:35:00,
2013-02-08 12:40:00,56.8,43.5,29.57,WSW,247,4.3,6.3,61,0.00,,---,0.00,VWS V13.01,2013-02-08 10:40:00,
2013-02-08 12:45:00,56.8,43.5,29.58,WSW,247,0.0,6.9,61,0.00,,---,0.00,VWS V13.01,2013-02-08 10:45:00,
2013-02-08 12:50:00,56.8,43.5,29.58,South,180,2.5,5.4,61,0.00,,---,0.00,VWS V13.01,2013-02-08 10:50:00,
2013-02-08 12:55:00,56.8,43.5,29.58,SW,225,0.0,9.4,61,0.00,,---,0.00,VWS V13.01,2013-02-08 10:55:00,
2013-02-08 13:01:00,56.8,43.1,29.58,SW,225,5.6,5.6,60,0.00,,---,0.00,VWS V13.01,2013-02-08 11:01:00,
2013-02-08 13:06:00,56.8,43.1,29.58,SSW,202,0.0,2.5,60,0.00,,---,0.00,VWS V13.01,2013-02-08 11:06:00,
2013-02-08 13:11:00,56.8,43.1,29.58,South,180,0.0,7.8,60,0.00,,---,0.00,VWS V13.01,2013-02-08 11:11:00,
2013-02-08 13:16:00,56.8,43.1,29.58,SSW,202,6.5,6.5,60,0.00,,---,0.00,VWS V13.01,2013-02-08 11:16:00,
2013-02-08 13:21:00,56.8,43.1,29.58,South,180,9.6,9.6,60,0.00,,---,0.00,VWS V13.01,2013-02-08 11:21:00,
2013-02-08 13:26:00,56.7,42.5,29.59,SSW,202,0.0,3.6,59,0.00,,---,0.00,VWS V13.01,2013-02-08 11:26:00,
2013-02-08 13:31:00,56.5,42.8,29.58,SSW,202,0.0,2.5,60,0.00,,---,0.00,VWS V13.01,2013-02-08 11:31:00,
2013-02-08 13:36:00,56.3,42.6,29.58,South,180,0.0,4.5,60,0.00,,---,0.00,VWS V13.01,2013-02-08 11:36:00,
2013-02-08 13:41:00,56.3,42.6,29.58,SW,225,0.0,1.6,60,0.00,,---,0.00,VWS V13.01,2013-02-08 11:41:00,
2013-02-08 13:46:00,56.3,43.0,29.58,West,270,0.0,4.5,61,0.00,,---,0.00,VWS V13.01,2013-02-08 11:46:00,
2013-02-08 13:51:00,56.3,43.0,29.58,South,180,0.0,2.7,61,0.00,,---,0.00,VWS V13.01,2013-02-08 11:51:00,
2013-02-08 13:56:00,56.5,43.2,29.57,SW,225,0.0,4.0,61,0.00,,---,0.00,VWS V13.01,2013-02-08 11:56:00,
2013-02-08 14:01:00,56.7,43.4,29.57,South,180,1.6,3.1,61,0.00,,---,0.00,VWS V13.01,2013-02-08 12:01:00,
2013-02-08 14:06:00,56.8,43.5,29.57,SSW,202,0.0,3.8,61,0.00,,---,0.00,VWS V13.01,2013-02-08 12:06:00,
2013-02-08 14:11:00,57.0,43.7,29.57,South,180,0.0,2.5,61,0.00,,---,0.00,VWS V13.01,2013-02-08 12:11:00,
2013-02-08 14:16:00,57.0,43.7,29.57,SSW,202,0.0,5.6,61,0.00,,---,0.00,VWS V13.01,2013-02-08 12:16:00,
2013-02-08 14:21:00,57.4,44.1,29.57,South,180,4.5,5.8,61,0.00,,---,0.00,VWS V13.01,2013-02-08 12:21:00,
2013-02-08 14:26:00,57.4,43.6,29.57,SE,135,0.0,5.1,60,0.00,,---,0.00,VWS V13.01,2013-02-08 12:26:00,
2013-02-08 14:31:00,57.2,43.0,29.57,WSW,247,5.8,9.6,59,0.00,,---,0.00,VWS V13.01,2013-02-08 12:31:00,
2013-02-08 14:36:00,57.0,42.8,29.57,SSE,157,9.2,10.7,59,0.00,,---,0.00,VWS V13.01,2013-02-08 12:36:00,
2013-02-08 14:41:00,57.0,42.8,29.57,SSW,202,6.7,8.5,59,0.00,,---,0.00,VWS V13.01,2013-02-08 12:41:00,
2013-02-08 14:46:00,57.0,43.3,29.57,SSE,157,7.4,7.6,60,0.00,,---,0.00,VWS V13.01,2013-02-08 12:46:00,
2013-02-08 14:51:00,57.0,43.3,29.57,WSW,247,0.0,7.2,60,0.00,,---,0.00,VWS V13.01,2013-02-08 12:51:00,
2013-02-08 14:56:00,57.0,43.3,29.57,SSW,202,2.5,4.7,60,0.00,,---,0.00,VWS V13.01,2013-02-08 12:56:00,
2013-02-08 15:01:00,57.0,43.3,29.56,West,270,0.0,1.6,60,0.00,,---,0.00,VWS V13.01,2013-02-08 13:01:00,
2013-02-08 15:06:00,57.4,43.6,29.56,South,180,0.0,2.0,60,0.00,,---,0.00,VWS V13.01,2013-02-08 13:06:00,
2013-02-08 15:11:00,57.6,43.8,29.56,SW,225,6.5,6.9,60,0.00,,---,0.00,VWS V13.01,2013-02-08 13:11:00,
2013-02-08 15:16:00,57.7,43.5,29.56,SE,135,7.4,12.3,59,0.00,,---,0.00,VWS V13.01,2013-02-08 13:16:00,
2013-02-08 15:21:00,57.9,43.2,29.57,SSW,202,6.0,9.6,58,0.00,,---,0.00,VWS V13.01,2013-02-08 13:21:00,
2013-02-08 15:26:00,57.9,42.8,29.57,SW,225,0.0,1.8,57,0.00,,---,0.00,VWS V13.01,2013-02-08 13:26:00,
2013-02-08 15:32:00,57.9,42.8,29.57,SSE,157,3.1,7.2,57,0.00,,---,0.00,VWS V13.01,2013-02-08 13:32:00,
2013-02-08 15:37:00,57.7,42.6,29.57,South,180,1.8,6.7,57,0.00,,---,0.00,VWS V13.01,2013-02-08 13:37:00,
2013-02-08 15:42:00,57.7,42.6,29.57,SSW,202,1.6,6.0,57,0.00,,---,0.00,VWS V13.01,2013-02-08 13:42:00,
2013-02-08 15:47:00,57.6,42.5,29.57,South,180,6.5,6.5,57,0.00,,---,0.00,VWS V13.01,2013-02-08 13:47:00,
2013-02-08 15:52:00,57.4,42.3,29.57,NW,315,1.6,1.6,57,0.00,,---,0.00,VWS V13.01,2013-02-08 13:52:00,
2013-02-08 15:57:00,57.4,42.3,29.57,WSW,247,10.3,11.4,57,0.00,,---,0.00,VWS V13.01,2013-02-08 13:57:00,
2013-02-08 16:02:00,57.0,41.9,29.58,SW,225,0.9,0.9,57,0.00,,---,0.00,VWS V13.01,2013-02-08 14:02:00,
2013-02-08 16:07:00,57.0,42.4,29.58,WSW,247,0.0,6.7,58,0.00,,---,0.00,VWS V13.01,2013-02-08 14:07:00,
2013-02-08 16:12:00,57.0,42.8,29.58,West,270,1.6,1.6,59,0.00,,---,0.00,VWS V13.01,2013-02-08 14:12:00,
2013-02-08 16:17:00,57.0,42.8,29.58,South,180,0.0,2.5,59,0.00,,---,0.00,VWS V13.01,2013-02-08 14:17:00,
2013-02-08 16:22:00,57.0,42.8,29.58,SSE,157,0.0,2.5,59,0.00,,---,0.00,VWS V13.01,2013-02-08 14:22:00,
2013-02-08 16:27:00,57.0,43.3,29.58,South,180,2.9,4.7,60,0.00,,---,0.00,VWS V13.01,2013-02-08 14:27:00,
2013-02-08 16:32:00,57.0,43.3,29.59,South,180,0.0,5.1,60,0.00,,---,0.00,VWS V13.01,2013-02-08 14:32:00,
2013-02-08 16:37:00,57.0,43.3,29.58,WNW,292,0.0,3.4,60,0.00,,---,0.00,VWS V13.01,2013-02-08 14:37:00,
2013-02-08 16:42:00,56.8,42.6,29.58,South,180,0.0,4.7,59,0.00,,---,0.00,VWS V13.01,2013-02-08 14:42:00,
2013-02-08 16:47:00,56.7,42.5,29.59,South,180,1.1,7.8,59,0.00,,---,0.00,VWS V13.01,2013-02-08 14:47:00,
2013-02-08 16:52:00,56.5,42.4,29.59,SW,225,0.0,8.3,59,0.00,,---,0.00,VWS V13.01,2013-02-08 14:52:00,
2013-02-08 16:57:00,56.3,42.2,29.59,South,180,6.9,6.9,59,0.00,,---,0.00,VWS V13.01,2013-02-08 14:57:00,
2013-02-08 17:02:00,56.1,42.0,29.59,WNW,292,0.0,3.6,59,0.00,,---,0.00,VWS V13.01,2013-02-08 15:02:00,
2013-02-08 17:07:00,56.1,42.0,29.59,South,180,1.6,11.2,59,0.00,,---,0.00,VWS V13.01,2013-02-08 15:07:00,
2013-02-08 17:12:00,55.9,41.8,29.59,SSW,202,8.9,10.1,59,0.00,,---,0.00,VWS V13.01,2013-02-08 15:12:00,
2013-02-08 17:17:00,55.9,41.8,29.59,SSW,202,2.2,8.3,59,0.00,,---,0.00,VWS V13.01,2013-02-08 15:17:00,
2013-02-08 17:22:00,55.6,41.5,29.58,WSW,247,3.8,3.8,59,0.00,,---,0.00,VWS V13.01,2013-02-08 15:22:00,
2013-02-08 17:27:00,55.6,41.5,29.59,WSW,247,0.0,6.3,59,0.00,,---,0.00,VWS V13.01,2013-02-08 15:27:00,
2013-02-08 17:32:00,55.4,41.3,29.59,South,180,3.1,8.7,59,0.00,,---,0.00,VWS V13.01,2013-02-08 15:32:00,
2013-02-08 17:37:00,55.2,41.6,29.60,SSW,202,6.0,6.0,60,0.00,,---,0.00,VWS V13.01,2013-02-08 15:37:00,
2013-02-08 17:42:00,55.0,41.4,29.60,South,180,1.1,6.9,60,0.00,,---,0.00,VWS V13.01,2013-02-08 15:42:00,
2013-02-08 17:47:00,54.9,41.3,29.60,SSW,202,1.8,4.5,60,0.00,,---,0.00,VWS V13.01,2013-02-08 15:47:00,
2013-02-08 17:52:00,54.7,41.1,29.61,SSW,202,2.0,2.0,60,0.00,,---,0.00,VWS V13.01,2013-02-08 15:52:00,
2013-02-08 17:57:00,54.5,41.3,29.61,SW,225,3.1,3.1,61,0.00,,---,0.00,VWS V13.01,2013-02-08 15:57:00,
2013-02-08 18:02:00,54.3,41.2,29.61,SSW,202,0.0,2.7,61,0.00,,---,0.00,VWS V13.01,2013-02-08 16:02:00,
2013-02-08 18:07:00,54.1,41.4,29.61,SW,225,2.7,2.7,62,0.00,,---,0.00,VWS V13.01,2013-02-08 16:07:00,
2013-02-08 18:12:00,54.0,41.3,29.61,SW,225,1.3,4.9,62,0.00,,---,0.00,VWS V13.01,2013-02-08 16:12:00,
2013-02-08 18:18:00,53.8,41.5,29.61,SSW,202,0.0,2.9,63,0.00,,---,0.00,VWS V13.01,2013-02-08 16:18:00,
2013-02-08 18:23:00,53.4,41.1,29.61,South,180,0.0,1.6,63,0.00,,---,0.00,VWS V13.01,2013-02-08 16:23:00,
2013-02-08 18:28:00,53.4,41.5,29.62,SSW,202,0.0,3.4,64,0.00,,---,0.00,VWS V13.01,2013-02-08 16:28:00,
2013-02-08 18:33:00,53.2,41.3,29.62,South,180,0.0,3.4,64,0.00,,---,0.00,VWS V13.01,2013-02-08 16:33:00,
2013-02-08 18:38:00,53.2,41.3,29.62,West,270,0.0,2.2,64,0.00,,---,0.00,VWS V13.01,2013-02-08 16:38:00,
2013-02-08 18:43:00,52.9,41.1,29.62,West,270,2.0,2.0,64,0.00,,---,0.00,VWS V13.01,2013-02-08 16:43:00,
2013-02-08 18:48:00,52.9,41.5,29.62,West,270,1.3,1.3,65,0.00,,---,0.00,VWS V13.01,2013-02-08 16:48:00,
2013-02-08 18:53:00,52.7,41.3,29.62,SSW,202,0.0,0.7,65,0.00,,---,0.00,VWS V13.01,2013-02-08 16:53:00,
2013-02-08 18:58:00,52.5,41.1,29.63,WSW,247,0.0,4.0,65,0.00,,---,0.00,VWS V13.01,2013-02-08 16:58:00,
2013-02-08 19:03:00,52.5,41.5,29.63,South,180,1.6,4.9,66,0.00,,---,0.00,VWS V13.01,2013-02-08 17:03:00,
2013-02-08 19:08:00,52.3,41.3,29.63,South,180,0.0,2.5,66,0.00,,---,0.00,VWS V13.01,2013-02-08 17:08:00,
2013-02-08 19:13:00,52.3,41.3,29.63,SSW,202,5.4,6.3,66,0.00,,---,0.00,VWS V13.01,2013-02-08 17:13:00,
2013-02-08 19:18:00,52.3,41.7,29.64,South,180,10.3,10.3,67,0.00,,---,0.00,VWS V13.01,2013-02-08 17:18:00,
2013-02-08 19:23:00,52.3,41.7,29.64,WSW,247,0.0,5.1,67,0.00,,---,0.00,VWS V13.01,2013-02-08 17:23:00,
2013-02-08 19:28:00,52.3,41.7,29.64,South,180,0.0,2.2,67,0.00,,---,0.00,VWS V13.01,2013-02-08 17:28:00,
2013-02-08 19:33:00,52.3,42.1,29.64,SSW,202,2.0,2.0,68,0.00,,---,0.00,VWS V13.01,2013-02-08 17:33:00,
2013-02-08 19:38:00,52.3,42.5,29.64,SSW,202,3.1,3.1,69,0.00,,---,0.00,VWS V13.01,2013-02-08 17:38:00,
2013-02-08 19:43:00,52.2,42.3,29.65,WNW,292,0.0,1.6,69,0.00,,---,0.00,VWS V13.01,2013-02-08 17:43:00,
2013-02-08 19:48:00,52.0,42.5,29.65,South,180,0.0,2.5,70,0.00,,---,0.00,VWS V13.01,2013-02-08 17:48:00,
2013-02-08 19:53:00,52.0,42.5,29.64,SSE,157,0.0,2.7,70,0.00,,---,0.00,VWS V13.01,2013-02-08 17:53:00,
2013-02-08 19:58:00,51.8,42.3,29.64,South,180,2.0,2.0,70,0.00,,---,0.00,VWS V13.01,2013-02-08 17:58:00,
2013-02-08 20:03:00,51.6,42.2,29.65,South,180,0.0,3.8,70,0.00,,---,0.00,VWS V13.01,2013-02-08 18:03:00,
2013-02-08 20:08:00,51.4,42.3,29.65,SSW,202,0.9,0.9,71,0.00,,---,0.00,VWS V13.01,2013-02-08 18:08:00,
2013-02-08 20:13:00,51.3,42.2,29.65,SSW,202,6.5,6.5,71,0.00,,---,0.00,VWS V13.01,2013-02-08 18:13:00,
2013-02-08 20:18:00,51.1,42.0,29.65,SSW,202,1.1,4.0,71,0.00,,---,0.00,VWS V13.01,2013-02-08 18:18:00,
2013-02-08 20:23:00,51.1,42.0,29.65,SW,225,4.0,4.0,71,0.00,,---,0.00,VWS V13.01,2013-02-08 18:23:00,
2013-02-08 20:28:00,50.9,41.8,29.65,SW,225,0.0,3.4,71,0.00,,---,0.00,VWS V13.01,2013-02-08 18:28:00,
2013-02-08 20:33:00,50.7,42.0,29.66,South,180,0.0,5.4,72,0.00,,---,0.00,VWS V13.01,2013-02-08 18:33:00,
2013-02-08 20:39:00,50.7,42.0,29.65,SSW,202,3.1,8.7,72,0.00,,---,0.00,VWS V13.01,2013-02-08 18:39:00,
2013-02-08 20:44:00,50.7,42.0,29.65,WSW,247,0.0,6.9,72,0.00,,---,0.00,VWS V13.01,2013-02-08 18:44:00,
2013-02-08 20:49:00,50.5,41.8,29.66,South,180,2.5,5.6,72,0.00,,---,0.00,VWS V13.01,2013-02-08 18:49:00,
2013-02-08 20:54:00,50.5,41.8,29.66,SSE,157,0.0,3.1,72,0.00,,---,0.00,VWS V13.01,2013-02-08 18:54:00,
2013-02-08 20:59:00,50.4,41.7,29.66,WSW,247,1.3,3.1,72,0.00,,---,0.00,VWS V13.01,2013-02-08 18:59:00,
2013-02-08 21:04:00,50.4,42.1,29.66,South,180,0.0,5.6,73,0.00,,---,0.00,VWS V13.01,2013-02-08 19:04:00,
2013-02-08 21:09:00,50.2,41.9,29.66,SW,225,0.0,1.6,73,0.00,,---,0.00,VWS V13.01,2013-02-08 19:09:00,
2013-02-08 21:14:00,49.8,41.5,29.67,West,270,0.0,1.6,73,0.00,,---,0.00,VWS V13.01,2013-02-08 19:14:00,
2013-02-08 21:19:00,49.8,41.5,29.67,West,270,0.0,1.6,73,0.00,,---,0.00,VWS V13.01,2013-02-08 19:19:00,
2013-02-08 21:24:00,49.8,41.5,29.67,SSE,157,0.0,1.3,73,0.00,,---,0.00,VWS V13.01,2013-02-08 19:24:00,
2013-02-08 21:29:00,49.6,41.3,29.67,SSW,202,0.0,3.4,73,0.00,,---,0.00,VWS V13.01,2013-02-08 19:29:00,
2013-02-08 21:34:00,49.6,41.3,29.67,WSW,247,4.0,4.0,73,0.00,,---,0.00,VWS V13.01,2013-02-08 19:34:00,
2013-02-08 21:39:00,49.5,41.2,29.68,SSW,202,0.0,1.6,73,0.00,,---,0.00,VWS V13.01,2013-02-08 19:39:00,
2013-02-08 21:44:00,49.3,41.0,29.67,South,180,0.0,2.2,73,0.00,,---,0.00,VWS V13.01,2013-02-08 19:44:00,
2013-02-08 21:49:00,49.3,41.0,29.68,WNW,292,0.0,2.5,73,0.00,,---,0.00,VWS V13.01,2013-02-08 19:49:00,
2013-02-08 21:54:00,49.1,40.8,29.68,West,270,0.0,6.3,73,0.00,,---,0.00,VWS V13.01,2013-02-08 19:54:00,
2013-02-08 22:00:00,48.9,40.6,29.68,South,180,1.1,5.8,73,0.00,,---,0.00,VWS V13.01,2013-02-08 20:00:00,
2013-02-08 22:05:00,48.9,40.6,29.69,West,270,0.0,1.6,73,0.00,,---,0.00,VWS V13.01,2013-02-08 20:05:00,
2013-02-08 22:10:00,48.9,40.6,29.69,SSW,202,0.0,1.6,73,0.00,,---,0.00,VWS V13.01,2013-02-08 20:10:00,
2013-02-08 22:15:00,48.7,40.5,29.69,South,180,0.0,1.3,73,0.00,,---,0.00,VWS V13.01,2013-02-08 20:15:00,
2013-02-08 22:20:00,48.7,40.5,29.69,SSW,202,0.0,1.3,73,0.00,,---,0.00,VWS V13.01,2013-02-08 20:20:00,
2013-02-08 22:25:00,48.7,40.5,29.70,WNW,292,0.0,1.3,73,0.00,,---,0.00,VWS V13.01,2013-02-08 20:25:00,
2013-02-08 22:30:00,48.7,40.5,29.69,ESE,112,0.0,1.3,73,0.00,,---,0.00,VWS V13.01,2013-02-08 20:30:00,
2013-02-08 22:35:00,48.6,40.3,29.70,SSE,157,0.0,1.8,73,0.00,,---,0.00,VWS V13.01,2013-02-08 20:35:00,
2013-02-08 22:40:00,48.6,40.7,29.70,SE,135,0.0,1.1,74,0.00,,---,0.00,VWS V13.01,2013-02-08 20:40:00,
2013-02-08 22:45:00,48.4,40.5,29.70,SSW,202,0.0,0.9,74,0.00,,---,0.00,VWS V13.01,2013-02-08 20:45:00,
2013-02-08 22:50:00,48.4,40.5,29.70,SSW,202,0.0,3.1,74,0.00,,---,0.00,VWS V13.01,2013-02-08 20:50:00,
2013-02-08 22:55:00,48.2,40.3,29.70,South,180,2.7,3.4,74,0.00,,---,0.00,VWS V13.01,2013-02-08 20:55:00,
2013-02-08 23:00:00,48.0,40.1,29.70,West,270,2.5,3.6,74,0.00,,---,0.00,VWS V13.01,2013-02-08 21:00:00,
2013-02-08 23:05:00,48.0,40.5,29.70,SSE,157,0.0,2.0,75,0.00,,---,0.00,VWS V13.01,2013-02-08 21:05:00,
2013-02-08 23:10:00,48.0,40.5,29.71,SW,225,0.0,2.2,75,0.00,,---,0.00,VWS V13.01,2013-02-08 21:10:00,
2013-02-08 23:15:00,47.8,40.3,29.71,South,180,0.0,0.9,75,0.00,,---,0.00,VWS V13.01,2013-02-08 21:15:00,
2013-02-08 23:20:00,47.8,40.3,29.71,South,180,0.0,0.9,75,0.00,,---,0.00,VWS V13.01,2013-02-08 21:20:00,
2013-02-08 23:25:00,47.7,40.2,29.72,South,180,0.0,0.9,75,0.00,,---,0.00,VWS V13.01,2013-02-08 21:25:00,
2013-02-08 23:30:00,47.5,40.0,29.72,SE,135,0.0,0.9,75,0.00,,---,0.00,VWS V13.01,2013-02-08 21:30:00,
2013-02-08 23:35:00,47.3,39.8,29.72,East,90,0.0,0.9,75,0.00,,---,0.00,VWS V13.01,2013-02-08 21:35:00,
2013-02-08 23:40:00,47.3,40.1,29.72,East,90,0.0,0.9,76,0.00,,---,0.00,VWS V13.01,2013-02-08 21:40:00,
2013-02-08 23:45:00,47.1,39.9,29.72,East,90,0.0,0.9,76,0.00,,---,0.00,VWS V13.01,2013-02-08 21:45:00,
2013-02-08 23:50:00,47.1,39.9,29.72,East,90,0.0,0.9,76,0.00,,---,0.00,VWS V13.01,2013-02-08 21:50:00,
2013-02-08 23:55:00,46.9,39.7,29.72,SE,135,0.0,0.9,76,0.00,,---,0.00,VWS V13.01,2013-02-08 21:55:00,